����,���ϕ���(m/s),���ϕ���,�ő�u�ԕ���(m/s),�ő啗��������,�C��(��),���x(%),10���Ԉړ��ώZ�J��(mm),1���Ԉړ��ώZ�J��(mm),���J��(mm),�݌v�J��(mm),����(���ώZ)(MJ/m2),����(���ώZ)(min),���n�C��(hPa),�C�ʋC��(hPa)
2024-02-26T00:00:00+09:00,2.5,�k,5,�k,5.2,87,0,0,20.5,20.5,3.68,0,1006.5,1020.9
2024-02-26T00:01:00+09:00,2.6,�k,5,�k,5.1,87,0,0,0,20.5,0,0,1006.5,1020.9
2024-02-26T00:02:00+09:00,2.6,�k,4.8,�k,5.1,87.2,0,0,0,20.5,0,0,1006.5,1020.9
2024-02-26T00:03:00+09:00,2.6,�k,4.8,�k,5.1,87.2,0,0,0,20.5,0,0,1006.5,1020.9
2024-02-26T00:04:00+09:00,2.6,�k,4.8,�k,5.1,87.2,0,0,0,20.5,0,0,1006.5,1020.9
2024-02-26T00:05:00+09:00,2.6,�k,4.8,�k,5.2,87.5,0,0,0,20.5,0,0,1006.6,1021
2024-02-26T00:06:00+09:00,2.6,�k,4.8,�k,5.2,86.9,0,0,0,20.5,0,0,1006.6,1021
2024-02-26T00:07:00+09:00,2.5,�k,4.8,�k,5.2,86.6,0,0,0,20.5,0,0,1006.6,1021
2024-02-26T00:08:00+09:00,2.4,�k,4.8,�k,5.2,86.6,0,0,0,20.5,0,0,1006.6,1021
2024-02-26T00:09:00+09:00,2.3,�k,4.7,�k�k��,5.2,86.5,0,0,0,20.5,0,0,1006.7,1021.1
2024-02-26T00:10:00+09:00,2.1,�k,4.7,�k�k��,5.1,86.7,0,0,0,20.5,0,0,1006.7,1021.1
2024-02-26T00:11:00+09:00,2,�k,4.7,�k�k��,5.2,87,0,0,0,20.5,0,0,1006.7,1021.1
2024-02-26T00:12:00+09:00,1.9,�k,4,�k,5.1,87.2,0,0,0,20.5,0,0,1006.7,1021.1
2024-02-26T00:13:00+09:00,1.9,�k,4,�k,5.2,87.2,0,0,0,20.5,0,0,1006.7,1021.1
2024-02-26T00:14:00+09:00,1.8,�k�k��,4,�k,5.2,87,0,0,0,20.5,0,0,1006.7,1021.1
2024-02-26T00:15:00+09:00,1.8,�k�k��,4,�k,5.2,86.9,0,0,0,20.5,0,0,1006.7,1021.1
2024-02-26T00:16:00+09:00,1.9,�k,4.4,�k,5.2,87,0,0,0,20.5,0,0,1006.7,1021.1
2024-02-26T00:17:00+09:00,2,�k,4.4,�k,5.2,87.2,0,0,0,20.5,0,0,1006.7,1021.1
2024-02-26T00:18:00+09:00,2.1,�k,4.4,�k,5.2,87.1,0,0,0,20.5,0,0,1006.7,1021.1
2024-02-26T00:19:00+09:00,2.2,�k,4.7,�k,5.4,86.8,0,0,0,20.5,0,0,1006.7,1021.1
2024-02-26T00:20:00+09:00,2.3,�k,4.7,�k,5.4,86.2,0,0,0,20.5,0,0,1006.7,1021.1
2024-02-26T00:21:00+09:00,2.2,�k,4.9,�k,5.4,85.9,0,0,0,20.5,0,0,1006.7,1021.1
2024-02-26T00:22:00+09:00,2.2,�k,4.9,�k,5.5,85.7,0,0,0,20.5,0,0,1006.7,1021.1
2024-02-26T00:23:00+09:00,2.2,�k,4.9,�k,5.5,85.6,0,0,0,20.5,0,0,1006.7,1021.1
2024-02-26T00:24:00+09:00,2.4,�k,4.9,�k,5.6,85.5,0,0,0,20.5,0,0,1006.6,1021
2024-02-26T00:25:00+09:00,2.5,�k,4.9,�k,5.5,85.2,0,0,0,20.5,0,0,1006.6,1021
2024-02-26T00:26:00+09:00,2.5,�k,4.9,�k,5.5,85.2,0,0,0,20.5,0,0,1006.6,1021
2024-02-26T00:27:00+09:00,2.4,�k,4.9,�k,5.6,85.4,0,0,0,20.5,0,0,1006.6,1021
2024-02-26T00:28:00+09:00,2.5,�k,4.9,�k,5.6,85.2,0,0,0,20.5,0,0,1006.6,1021
2024-02-26T00:29:00+09:00,2.4,�k,4.9,�k,5.6,85.3,0,0,0,20.5,0,0,1006.6,1021
2024-02-26T00:30:00+09:00,2.5,�k,4.9,�k,5.5,85.1,0,0,0,20.5,0,0,1006.6,1021
2024-02-26T00:31:00+09:00,2.4,�k,4.7,�k,5.5,85.2,0,0,0,20.5,0,0,1006.6,1021
2024-02-26T00:32:00+09:00,2.3,�k,4.7,�k,5.5,85.6,0,0,0,20.5,0,0,1006.6,1021
2024-02-26T00:33:00+09:00,2.2,�k,4.7,�k,5.5,85.5,0,0,0,20.5,0,0,1006.6,1021
2024-02-26T00:34:00+09:00,2,�k,4.7,�k,5.5,85.5,0,0,0,20.5,0,0,1006.6,1021
2024-02-26T00:35:00+09:00,1.9,�k,4.7,�k,5.4,85.5,0,0,0,20.5,0,0,1006.6,1021
2024-02-26T00:36:00+09:00,1.7,�k,3.9,�k�k��,5.4,85.6,0,0,0,20.5,0,0,1006.6,1021
2024-02-26T00:37:00+09:00,1.7,�k,3.7,�k�k��,5.4,85.7,0,0,0,20.5,0,0,1006.5,1020.9
2024-02-26T00:38:00+09:00,1.6,�k,4.1,�k��,5.5,85.7,0,0,0,20.5,0,0,1006.6,1021
2024-02-26T00:39:00+09:00,1.6,�k�k��,4.1,�k��,5.5,85.6,0,0,0,20.5,0,0,1006.6,1021
2024-02-26T00:40:00+09:00,1.5,�k�k��,4.1,�k��,5.5,85.5,0,0,0,20.5,0,0,1006.5,1020.9
2024-02-26T00:41:00+09:00,1.5,�k�k��,4.1,�k��,5.5,85.6,0,0,0,20.5,0,0,1006.5,1020.9
2024-02-26T00:42:00+09:00,1.6,�k�k��,4.1,�k��,5.5,85.5,0,0,0,20.5,0,0,1006.5,1020.9
2024-02-26T00:43:00+09:00,1.9,�k�k��,5.3,�k�k��,5.5,85.5,0,0,0,20.5,0,0,1006.5,1020.9
2024-02-26T00:44:00+09:00,2.1,�k,5.3,�k�k��,5.6,85.7,0,0,0,20.5,0,0,1006.5,1020.9
2024-02-26T00:45:00+09:00,2.3,�k,5.3,�k�k��,5.6,85.4,0,0,0,20.5,0,0,1006.5,1020.9
2024-02-26T00:46:00+09:00,2.5,�k,5.3,�k�k��,5.5,85.2,0,0,0,20.5,0,0,1006.5,1020.9
2024-02-26T00:47:00+09:00,2.6,�k,5.3,�k�k��,5.5,85.2,0,0,0,20.5,0,0,1006.5,1020.9
2024-02-26T00:48:00+09:00,2.7,�k�k��,5.3,�k�k��,5.4,85.4,0,0,0,20.5,0,0,1006.5,1020.9
2024-02-26T00:49:00+09:00,2.7,�k�k��,5.3,�k�k��,5.4,85.6,0,0,0,20.5,0,0,1006.5,1020.9
2024-02-26T00:50:00+09:00,2.9,�k�k��,5.3,�k�k��,5.4,86.1,0,0,0,20.5,0,0,1006.5,1020.9
2024-02-26T00:51:00+09:00,3.1,�k�k��,5.3,�k�k��,5.4,86.3,0,0,0,20.5,0,0,1006.5,1020.9
2024-02-26T00:52:00+09:00,3.2,�k�k��,5.3,�k�k��,5.4,86.2,0,0,0,20.5,0,0,1006.5,1020.9
2024-02-26T00:53:00+09:00,3.2,�k�k��,4.9,�k,5.5,86.2,0,0,0,20.5,0,0,1006.5,1020.9
2024-02-26T00:54:00+09:00,3.2,�k�k��,6.3,�k,5.5,86.1,0,0,0,20.5,0,0,1006.5,1020.9
2024-02-26T00:55:00+09:00,3.2,�k�k��,6.3,�k,5.5,85.9,0,0,0,20.5,0,0,1006.5,1020.9
2024-02-26T00:56:00+09:00,3.1,�k�k��,6.3,�k,5.5,85.3,0,0,0,20.5,0,0,1006.6,1021
2024-02-26T00:57:00+09:00,3.1,�k�k��,6.3,�k,5.5,85,0,0,0,20.5,0,0,1006.6,1021
2024-02-26T00:58:00+09:00,3,�k�k��,6.3,�k,5.5,84.7,0,0,0,20.5,0,0,1006.5,1020.9
2024-02-26T00:59:00+09:00,3,�k,6.3,�k,5.6,84.1,0,0,0,20.5,0,0,1006.5,1020.9
2024-02-26T01:00:00+09:00,3.1,�k,6.3,�k,5.6,83.9,0,0,0,20.5,0,0,1006.4,1020.8
2024-02-26T01:01:00+09:00,3.1,�k,6.3,�k,5.6,84,0,0,0,20.5,0,0,1006.5,1020.9
2024-02-26T01:02:00+09:00,3.1,�k,6.3,�k,5.5,83.8,0,0,0,20.5,0,0,1006.5,1020.9
2024-02-26T01:03:00+09:00,3.2,�k,6.3,�k,5.5,84.1,0,0,0,20.5,0,0,1006.5,1020.9
2024-02-26T01:04:00+09:00,3.1,�k,6.1,�k,5.5,84.3,0,0,0,20.5,0,0,1006.5,1020.9
2024-02-26T01:05:00+09:00,3,�k,6.1,�k,5.6,84.3,0,0,0,20.5,0,0,1006.5,1020.9
2024-02-26T01:06:00+09:00,3.1,�k,6.1,�k,5.5,84,0,0,0,20.5,0,0,1006.5,1020.9
2024-02-26T01:07:00+09:00,3.1,�k�k��,6.1,�k,5.5,84.1,0,0,0,20.5,0,0,1006.5,1020.9
2024-02-26T01:08:00+09:00,3.1,�k�k��,6.1,�k,5.4,84.2,0,0,0,20.5,0,0,1006.4,1020.8
2024-02-26T01:09:00+09:00,3.1,�k�k��,6.1,�k,5.4,84.6,0,0,0,20.5,0,0,1006.5,1020.9
2024-02-26T01:10:00+09:00,2.9,�k�k��,6.1,�k,5.3,84.6,0,0,0,20.5,0,0,1006.5,1020.9
2024-02-26T01:11:00+09:00,2.7,�k�k��,6.1,�k,5.3,84.4,0,0,0,20.5,0,0,1006.5,1020.9
2024-02-26T01:12:00+09:00,2.6,�k�k��,6.1,�k,5.4,84.3,0,0,0,20.5,0,0,1006.5,1020.9
2024-02-26T01:13:00+09:00,2.5,�k�k��,5.1,�k,5.3,84.5,0,0,0,20.5,0,0,1006.6,1021
2024-02-26T01:14:00+09:00,2.5,�k�k��,4.8,�k�k��,5.1,84.7,0,0,0,20.5,0,0,1006.6,1021
2024-02-26T01:15:00+09:00,2.5,�k�k��,5.1,�k,5.1,85.6,0,0,0,20.5,0,0,1006.6,1021
2024-02-26T01:16:00+09:00,2.5,�k�k��,5.1,�k,5,85.8,0,0,0,20.5,0,0,1006.6,1021
2024-02-26T01:17:00+09:00,2.5,�k�k��,5.1,�k,5.1,86.5,0,0,0,20.5,0,0,1006.6,1021
2024-02-26T01:18:00+09:00,2.6,�k�k��,5.1,�k,5.1,86.6,0,0,0,20.5,0,0,1006.6,1021
2024-02-26T01:19:00+09:00,2.5,�k�k��,5.1,�k,5.1,86.7,0,0,0,20.5,0,0,1006.6,1021
2024-02-26T01:20:00+09:00,2.6,�k�k��,5.1,�k,5,86.3,0,0,0,20.5,0,0,1006.6,1021
2024-02-26T01:21:00+09:00,2.6,�k�k��,5.1,�k,5,86.6,0,0,0,20.5,0,0,1006.6,1021
2024-02-26T01:22:00+09:00,2.7,�k�k��,5.1,�k,5.1,86.9,0,0,0,20.5,0,0,1006.6,1021
2024-02-26T01:23:00+09:00,2.6,�k�k��,5.1,�k,5,86.4,0,0,0,20.5,0,0,1006.6,1021
2024-02-26T01:24:00+09:00,2.5,�k�k��,5.1,�k,4.8,86.4,0,0,0,20.5,0,0,1006.6,1021
2024-02-26T01:25:00+09:00,2.4,�k�k��,3.9,�k�k��,5,87.1,0,0,0,20.5,0,0,1006.6,1021
2024-02-26T01:26:00+09:00,2.3,�k�k��,3.9,�k�k��,4.9,87.3,0,0,0,20.5,0,0,1006.6,1021
2024-02-26T01:27:00+09:00,2.3,�k�k��,3.9,�k�k��,4.8,87.2,0,0,0,20.5,0,0,1006.6,1021
2024-02-26T01:28:00+09:00,2.2,�k�k��,3.9,�k�k��,4.8,87.6,0,0,0,20.5,0,0,1006.5,1020.9
2024-02-26T01:29:00+09:00,2.2,�k�k��,3.9,�k�k��,4.9,88.1,0,0,0,20.5,0,0,1006.6,1021
2024-02-26T01:30:00+09:00,2.1,�k�k��,3.9,�k�k��,4.9,88.2,0,0,0,20.5,0,0,1006.6,1021
2024-02-26T01:31:00+09:00,2.1,�k�k��,4.6,�k,4.7,87.6,0,0,0,20.5,0,0,1006.6,1021
2024-02-26T01:32:00+09:00,2,�k,4.6,�k,4.8,87.5,0,0,0,20.5,0,0,1006.7,1021.1
2024-02-26T01:33:00+09:00,2.1,�k,4.6,�k,4.9,87.1,0,0,0,20.5,0,0,1006.7,1021.1
2024-02-26T01:34:00+09:00,2,�k,4.6,�k,5,86.6,0,0,0,20.5,0,0,1006.7,1021.1
2024-02-26T01:35:00+09:00,1.9,�k,4.6,�k,4.9,86.4,0,0,0,20.5,0,0,1006.6,1021
2024-02-26T01:36:00+09:00,1.9,�k,4.6,�k,5,86.2,0,0,0,20.5,0,0,1006.6,1021
2024-02-26T01:37:00+09:00,1.9,�k,4.6,�k,5,86.1,0,0,0,20.5,0,0,1006.6,1021
2024-02-26T01:38:00+09:00,1.9,�k�k��,4.6,�k,5,85.9,0,0,0,20.5,0,0,1006.6,1021
2024-02-26T01:39:00+09:00,1.9,�k�k��,4.6,�k,5,85.8,0,0,0,20.5,0,0,1006.5,1020.9
2024-02-26T01:40:00+09:00,1.9,�k�k��,4.6,�k,5,85.7,0,0,0,20.5,0,0,1006.5,1020.9
2024-02-26T01:41:00+09:00,1.8,�k�k��,4.3,�k,5.1,85.4,0,0,0,20.5,0,0,1006.5,1020.9
2024-02-26T01:42:00+09:00,1.8,�k�k��,4.3,�k,5.2,85.5,0,0,0,20.5,0,0,1006.5,1020.9
2024-02-26T01:43:00+09:00,1.8,�k�k��,4.3,�k,5.1,85.1,0,0,0,20.5,0,0,1006.5,1020.9
2024-02-26T01:44:00+09:00,1.9,�k�k��,4.3,�k,5.1,85.1,0,0,0,20.5,0,0,1006.5,1020.9
2024-02-26T01:45:00+09:00,1.9,�k�k��,4.3,�k,5.1,84.9,0,0,0,20.5,0,0,1006.5,1020.9
2024-02-26T01:46:00+09:00,1.9,�k�k��,4.3,�k,5,84.9,0,0,0,20.5,0,0,1006.4,1020.8
2024-02-26T01:47:00+09:00,1.8,�k�k��,4.3,�k,5,85,0,0,0,20.5,0,0,1006.5,1020.9
2024-02-26T01:48:00+09:00,1.8,�k�k��,4.3,�k,4.9,85.1,0,0,0,20.5,0,0,1006.4,1020.8
2024-02-26T01:49:00+09:00,1.7,�k�k��,3.7,�k�k��,4.9,85.4,0,0,0,20.5,0,0,1006.5,1020.9
2024-02-26T01:50:00+09:00,1.7,�k�k��,3.7,�k�k��,4.9,85.4,0,0,0,20.5,0,0,1006.5,1020.9
2024-02-26T01:51:00+09:00,1.7,�k�k��,3.7,�k�k��,4.8,85.6,0,0,0,20.5,0,0,1006.5,1020.9
2024-02-26T01:52:00+09:00,1.6,�k�k��,3.5,�k��,4.8,85.7,0,0,0,20.5,0,0,1006.5,1020.9
2024-02-26T01:53:00+09:00,1.6,�k�k��,3.5,�k��,4.9,85.7,0,0,0,20.5,0,0,1006.4,1020.8
2024-02-26T01:54:00+09:00,1.6,�k�k��,3.1,�k��,4.9,85.5,0,0,0,20.5,0,0,1006.5,1020.9
2024-02-26T01:55:00+09:00,1.6,�k�k��,3.5,�k��,5,85.3,0,0,0,20.5,0,0,1006.4,1020.8
2024-02-26T01:56:00+09:00,1.6,�k�k��,3.5,�k��,4.9,85.1,0,0,0,20.5,0,0,1006.5,1020.9
2024-02-26T01:57:00+09:00,1.7,�k�k��,3.5,�k��,4.9,85.2,0,0,0,20.5,0,0,1006.4,1020.8
2024-02-26T01:58:00+09:00,1.9,�k�k��,5.6,�k�k��,5,85.3,0,0,0,20.5,0,0,1006.4,1020.8
2024-02-26T01:59:00+09:00,2.1,�k�k��,5.6,�k�k��,5.1,84.8,0,0,0,20.5,0,0,1006.4,1020.8
2024-02-26T02:00:00+09:00,2.2,�k�k��,5.6,�k�k��,5.1,84.3,0,0,0,20.5,0,0,1006.5,1020.9
2024-02-26T02:01:00+09:00,2.2,�k�k��,5.6,�k�k��,5.1,84.3,0,0,0,20.5,0,0,1006.5,1020.9
2024-02-26T02:02:00+09:00,2.4,�k�k��,5.6,�k�k��,4.9,84.3,0,0,0,20.5,0,0,1006.5,1020.9
2024-02-26T02:03:00+09:00,2.4,�k�k��,5.6,�k�k��,4.9,84.9,0,0,0,20.5,0,0,1006.5,1020.9
2024-02-26T02:04:00+09:00,2.5,�k�k��,5.6,�k�k��,4.9,85.1,0,0,0,20.5,0,0,1006.5,1020.9
2024-02-26T02:05:00+09:00,2.5,�k,5.6,�k�k��,4.8,85.1,0,0,0,20.5,0,0,1006.5,1020.9
2024-02-26T02:06:00+09:00,2.4,�k,5.6,�k�k��,4.7,85.5,0,0,0,20.5,0,0,1006.5,1020.9
2024-02-26T02:07:00+09:00,2.5,�k�k��,5.6,�k�k��,4.7,86,0,0,0,20.5,0,0,1006.5,1020.9
2024-02-26T02:08:00+09:00,2.3,�k�k��,4.9,�k,4.7,86.3,0,0,0,20.5,0,0,1006.5,1020.9
2024-02-26T02:09:00+09:00,2.2,�k�k��,4.9,�k,4.7,86.3,0,0,0,20.5,0,0,1006.5,1020.9
2024-02-26T02:10:00+09:00,2.2,�k�k��,4.9,�k,4.7,86.3,0,0,0,20.5,0,0,1006.4,1020.8
2024-02-26T02:11:00+09:00,2.2,�k�k��,4.9,�k,4.7,86.4,0,0,0,20.5,0,0,1006.5,1020.9
2024-02-26T02:12:00+09:00,2.2,�k�k��,4.9,�k,4.8,86.3,0,0,0,20.5,0,0,1006.5,1020.9
2024-02-26T02:13:00+09:00,2.2,�k�k��,4.7,�k�k��,4.8,86.2,0,0,0,20.5,0,0,1006.4,1020.8
2024-02-26T02:14:00+09:00,2.3,�k�k��,4.6,�k��,4.7,86,0,0,0,20.5,0,0,1006.5,1020.9
2024-02-26T02:15:00+09:00,2.2,�k�k��,4.6,�k��,4.7,86,0,0,0,20.5,0,0,1006.5,1020.9
2024-02-26T02:16:00+09:00,2.3,�k�k��,4.6,�k��,4.6,86,0,0,0,20.5,0,0,1006.5,1020.9
2024-02-26T02:17:00+09:00,2.3,�k�k��,4.4,�k�k��,4.6,86.2,0,0,0,20.5,0,0,1006.5,1020.9
2024-02-26T02:18:00+09:00,2.4,�k�k��,4.4,�k�k��,4.6,86.4,0,0,0,20.5,0,0,1006.6,1021
2024-02-26T02:19:00+09:00,2.3,�k�k��,4.4,�k�k��,4.6,86.5,0,0,0,20.5,0,0,1006.5,1020.9
2024-02-26T02:20:00+09:00,2.3,�k�k��,4.5,�k,4.6,86.4,0,0,0,20.5,0,0,1006.5,1020.9
2024-02-26T02:21:00+09:00,2.2,�k�k��,4.5,�k,4.7,86.2,0,0,0,20.5,0,0,1006.5,1020.9
2024-02-26T02:22:00+09:00,2.2,�k�k��,4.5,�k,4.7,85.8,0,0,0,20.5,0,0,1006.4,1020.8
2024-02-26T02:23:00+09:00,2.1,�k�k��,4.5,�k,4.7,85.7,0,0,0,20.5,0,0,1006.4,1020.8
2024-02-26T02:24:00+09:00,2,�k�k��,4.5,�k,4.7,85.8,0,0,0,20.5,0,0,1006.4,1020.8
2024-02-26T02:25:00+09:00,2,�k�k��,4.5,�k,4.7,85.8,0,0,0,20.5,0,0,1006.4,1020.8
2024-02-26T02:26:00+09:00,2,�k�k��,4.5,�k,4.6,85.7,0,0,0,20.5,0,0,1006.3,1020.7
2024-02-26T02:27:00+09:00,2,�k�k��,5,�k,4.6,85.9,0,0,0,20.5,0,0,1006.3,1020.7
2024-02-26T02:28:00+09:00,1.9,�k�k��,5,�k,4.7,85.9,0,0,0,20.5,0,0,1006.4,1020.8
2024-02-26T02:29:00+09:00,1.9,�k,5,�k,4.6,85.8,0,0,0,20.5,0,0,1006.3,1020.7
2024-02-26T02:30:00+09:00,1.9,�k,5,�k,4.6,85.9,0,0,0,20.5,0,0,1006.3,1020.7
2024-02-26T02:31:00+09:00,1.8,�k,5,�k,4.5,85.9,0,0,0,20.5,0,0,1006.3,1020.7
2024-02-26T02:32:00+09:00,1.8,�k,5,�k,4.5,86.1,0,0,0,20.5,0,0,1006.4,1020.8
2024-02-26T02:33:00+09:00,1.8,�k,5,�k,4.6,86.2,0,0,0,20.5,0,0,1006.4,1020.8
2024-02-26T02:34:00+09:00,1.8,�k�k��,5,�k,4.6,86.1,0,0,0,20.5,0,0,1006.3,1020.7
2024-02-26T02:35:00+09:00,1.7,�k�k��,5,�k,4.6,86.1,0,0,0,20.5,0,0,1006.3,1020.7
2024-02-26T02:36:00+09:00,1.7,�k�k��,5,�k,4.6,86.2,0,0,0,20.5,0,0,1006.3,1020.7
2024-02-26T02:37:00+09:00,1.6,�k�k��,4.2,�k,4.6,86,0,0,0,20.5,0,0,1006.3,1020.7
2024-02-26T02:38:00+09:00,1.6,�k�k��,4.2,�k,4.6,86,0,0,0,20.5,0,0,1006.3,1020.7
2024-02-26T02:39:00+09:00,1.6,�k�k��,3.7,�k�k��,4.6,85.9,0,0,0,20.5,0,0,1006.4,1020.8
2024-02-26T02:40:00+09:00,1.6,�k�k��,3.7,�k�k��,4.4,85.9,0,0,0,20.5,0,0,1006.3,1020.7
2024-02-26T02:41:00+09:00,1.7,�k�k��,4.8,�k�k��,4.4,86.3,0,0,0,20.5,0,0,1006.4,1020.8
2024-02-26T02:42:00+09:00,2,�k�k��,5.6,�k�k��,4.4,86.8,0,0,0,20.5,0,0,1006.3,1020.7
2024-02-26T02:43:00+09:00,2.2,�k,5.6,�k�k��,4.7,87.3,0,0,0,20.5,0,0,1006.3,1020.7
2024-02-26T02:44:00+09:00,2.3,�k,5.6,�k�k��,4.8,87.2,0,0,0,20.5,0,0,1006.2,1020.6
2024-02-26T02:45:00+09:00,2.5,�k,5.6,�k�k��,4.7,86.4,0,0,0,20.5,0,0,1006.2,1020.6
2024-02-26T02:46:00+09:00,2.5,�k,5.6,�k�k��,4.8,86,0,0,0,20.5,0,0,1006.2,1020.6
2024-02-26T02:47:00+09:00,2.5,�k,5.6,�k�k��,4.8,85.5,0,0,0,20.5,0,0,1006.2,1020.6
2024-02-26T02:48:00+09:00,2.7,�k,5.6,�k�k��,4.7,85.3,0,0,0,20.5,0,0,1006.2,1020.6
2024-02-26T02:49:00+09:00,2.7,�k,5.6,�k�k��,4.6,85.4,0,0,0,20.5,0,0,1006.1,1020.5
2024-02-26T02:50:00+09:00,2.8,�k,5.6,�k�k��,4.5,85.6,0,0,0,20.5,0,0,1006.1,1020.5
2024-02-26T02:51:00+09:00,2.7,�k,5.6,�k�k��,4.5,86,0,0,0,20.5,0,0,1006.1,1020.5
2024-02-26T02:52:00+09:00,2.5,�k,5.3,�k�k��,4.5,86.3,0,0,0,20.5,0,0,1006.1,1020.5
2024-02-26T02:53:00+09:00,2.4,�k,5.3,�k�k��,4.4,86.6,0,0,0,20.5,0,0,1006.1,1020.5
2024-02-26T02:54:00+09:00,2.4,�k,5.3,�k�k��,4.4,86.8,0,0,0,20.5,0,0,1006.1,1020.5
2024-02-26T02:55:00+09:00,2.2,�k,4.1,�k�k��,4.5,87.1,0,0,0,20.5,0,0,1006,1020.4
2024-02-26T02:56:00+09:00,2.3,�k,4.1,�k�k��,4.4,87.1,0,0,0,20.5,0,0,1006,1020.4
2024-02-26T02:57:00+09:00,2.2,�k,4.1,�k�k��,4.5,87,0,0,0,20.5,0,0,1006.1,1020.5
2024-02-26T02:58:00+09:00,2.1,�k,4.1,�k�k��,4.4,86.9,0,0,0,20.5,0,0,1006.1,1020.5
2024-02-26T02:59:00+09:00,2,�k,4.1,�k�k��,4.4,87,0,0,0,20.5,0,0,1006.2,1020.6
2024-02-26T03:00:00+09:00,1.9,�k,3.7,�k�k��,4.4,87.1,0,0,0,20.5,0,0,1006.1,1020.5
2024-02-26T03:01:00+09:00,2,�k,3.7,�k�k��,4.5,87.2,0,0,0,20.5,0,0,1006.2,1020.6
2024-02-26T03:02:00+09:00,1.9,�k,3.7,�k�k��,4.5,87.1,0,0,0,20.5,0,0,1006.1,1020.5
2024-02-26T03:03:00+09:00,1.8,�k,3.7,�k�k��,4.4,87,0,0,0,20.5,0,0,1006.2,1020.6
2024-02-26T03:04:00+09:00,1.8,�k,3.7,�k�k��,4.5,87,0,0,0,20.5,0,0,1006.2,1020.6
2024-02-26T03:05:00+09:00,1.7,�k,3.7,�k�k��,4.5,87,0,0,0,20.5,0,0,1006.1,1020.5
2024-02-26T03:06:00+09:00,1.7,�k�k��,3.7,�k�k��,4.5,86.9,0,0,0,20.5,0,0,1006.1,1020.5
2024-02-26T03:07:00+09:00,1.9,�k�k��,3.7,�k�k��,4.4,87,0,0,0,20.5,0,0,1006.1,1020.5
2024-02-26T03:08:00+09:00,2,�k�k��,3.7,�k�k��,4.5,87.2,0,0,0,20.5,0,0,1006.1,1020.5
2024-02-26T03:09:00+09:00,2.2,�k�k��,3.7,�k�k��,4.6,87.3,0,0,0,20.5,0,0,1006.1,1020.5
2024-02-26T03:10:00+09:00,2.2,�k�k��,4,�k��,4.7,87.1,0,0,0,20.5,0,0,1006.1,1020.5
2024-02-26T03:11:00+09:00,2.2,�k�k��,4,�k��,4.7,87,0,0,0,20.5,0,0,1006.2,1020.6
2024-02-26T03:12:00+09:00,2.3,�k��,4,�k��,4.7,86.7,0,0,0,20.5,0,0,1006.2,1020.6
2024-02-26T03:13:00+09:00,2.3,�k��,4,�k��,4.8,86.5,0,0,0,20.5,0,0,1006.2,1020.6
2024-02-26T03:14:00+09:00,2.4,�k��,4,�k��,4.8,86.5,0,0,0,20.5,0,0,1006.2,1020.6
2024-02-26T03:15:00+09:00,2.3,�k��,4,�k��,4.9,86.3,0,0,0,20.5,0,0,1006.2,1020.6
2024-02-26T03:16:00+09:00,2.2,�k��,4,�k��,4.8,86.4,0,0,0,20.5,0,0,1006.2,1020.6
2024-02-26T03:17:00+09:00,2.1,�k�k��,4,�k��,4.8,86.5,0,0,0,20.5,0,0,1006.2,1020.6
2024-02-26T03:18:00+09:00,2,�k�k��,4,�k��,4.7,86.9,0,0,0,20.5,0,0,1006.3,1020.7
2024-02-26T03:19:00+09:00,1.9,�k�k��,4,�k��,4.7,87.7,0,0,0,20.5,0,0,1006.3,1020.7
2024-02-26T03:20:00+09:00,1.8,�k,3.8,�k�k��,4.5,87.7,0,0,0,20.5,0,0,1006.3,1020.7
2024-02-26T03:21:00+09:00,1.8,�k,3.4,�k��,4.5,88.3,0,0,0,20.5,0,0,1006.3,1020.7
2024-02-26T03:22:00+09:00,1.7,�k,3.4,�k��,4.4,88.9,0,0,0,20.5,0,0,1006.2,1020.6
2024-02-26T03:23:00+09:00,1.7,�k,3.4,�k��,4.5,89.8,0,0,0,20.5,0,0,1006.3,1020.7
2024-02-26T03:24:00+09:00,1.6,�k,2.5,���k��,4.4,89.3,0,0,0,20.5,0,0,1006.3,1020.7
2024-02-26T03:25:00+09:00,1.6,�k,2.7,�k�k��,4.5,89.7,0,0,0,20.5,0,0,1006.4,1020.8
2024-02-26T03:26:00+09:00,1.7,�k,2.7,�k�k��,4.6,90,0,0,0,20.5,0,0,1006.3,1020.7
2024-02-26T03:27:00+09:00,1.7,�k,2.7,�k�k��,4.6,90,0,0,0,20.5,0,0,1006.3,1020.7
2024-02-26T03:28:00+09:00,1.6,�k,2.7,�k�k��,4.6,89.9,0,0,0,20.5,0,0,1006.2,1020.6
2024-02-26T03:29:00+09:00,1.5,�k�k��,2.7,�k�k��,4.5,90,0,0,0,20.5,0,0,1006.3,1020.7
2024-02-26T03:30:00+09:00,1.5,�k�k��,2.7,�k�k��,4.6,90,0,0,0,20.5,0,0,1006.3,1020.7
2024-02-26T03:31:00+09:00,1.5,�k�k��,2.7,�k�k��,4.6,89.8,0,0,0,20.5,0,0,1006.2,1020.6
2024-02-26T03:32:00+09:00,1.5,�k�k��,2.7,�k�k��,4.6,89.8,0,0,0,20.5,0,0,1006.2,1020.6
2024-02-26T03:33:00+09:00,1.5,�k��,2.7,�k�k��,4.6,90,0,0,0,20.5,0,0,1006.2,1020.6
2024-02-26T03:34:00+09:00,1.7,�k��,3.5,�k��,4.6,90.3,0,0,0,20.5,0,0,1006.2,1020.6
2024-02-26T03:35:00+09:00,1.7,�k��,3.5,�k��,4.6,90.3,0,0,0,20.5,0,0,1006.2,1020.6
2024-02-26T03:36:00+09:00,1.8,�k��,3.6,�k�k��,4.6,90.2,0,0,0,20.5,0,0,1006.2,1020.6
2024-02-26T03:37:00+09:00,1.9,�k��,4.2,�k��,4.7,90,0,0,0,20.5,0,0,1006.2,1020.6
2024-02-26T03:38:00+09:00,2.1,�k��,4.2,�k��,4.7,89.9,0,0,0,20.5,0,0,1006.1,1020.5
2024-02-26T03:39:00+09:00,2.2,�k��,4.2,�k��,4.7,89.8,0,0,0,20.5,0,0,1006.1,1020.5
2024-02-26T03:40:00+09:00,2.4,�k��,4.2,�k��,4.7,89.7,0,0,0,20.5,0,0,1006.2,1020.6
2024-02-26T03:41:00+09:00,2.5,�k��,5.4,�k��,4.7,89.7,0,0,0,20.5,0,0,1006.2,1020.6
2024-02-26T03:42:00+09:00,2.6,�k��,5.4,�k��,4.7,89.7,0,0,0,20.5,0,0,1006.2,1020.6
2024-02-26T03:43:00+09:00,3,�k��,5.8,�k��,4.8,89.3,0,0,0,20.5,0,0,1006.2,1020.6
2024-02-26T03:44:00+09:00,3,�k��,5.8,�k��,4.9,89,0,0,0,20.5,0,0,1006.2,1020.6
2024-02-26T03:45:00+09:00,3,�k��,5.8,�k��,4.9,88.7,0,0,0,20.5,0,0,1006.2,1020.6
2024-02-26T03:46:00+09:00,2.9,�k��,5.8,�k��,4.9,88.4,0,0,0,20.5,0,0,1006.2,1020.6
2024-02-26T03:47:00+09:00,2.8,�k�k��,5.8,�k��,4.8,88.6,0,0,0,20.5,0,0,1006.2,1020.6
2024-02-26T03:48:00+09:00,2.9,�k�k��,5.8,�k��,4.8,88.8,0,0,0,20.5,0,0,1006.1,1020.5
2024-02-26T03:49:00+09:00,2.8,�k�k��,5.8,�k��,4.8,88.7,0,0,0,20.5,0,0,1006.1,1020.5
2024-02-26T03:50:00+09:00,3.1,�k�k��,8.4,�k��,4.9,88.4,0,0,0,20.5,0,0,1006,1020.4
2024-02-26T03:51:00+09:00,3.3,�k��,8.4,�k��,5,86.9,0,0,0,20.5,0,0,1005.9,1020.3
2024-02-26T03:52:00+09:00,3.4,�k�k��,8.4,�k��,5.1,86.1,0,0,0,20.5,0,0,1006,1020.4
2024-02-26T03:53:00+09:00,3.2,�k�k��,8.4,�k��,5.1,84.9,0,0,0,20.5,0,0,1006,1020.4
2024-02-26T03:54:00+09:00,3.2,�k�k��,8.4,�k��,5.1,84.8,0,0,0,20.5,0,0,1006.1,1020.5
2024-02-26T03:55:00+09:00,3.4,�k�k��,8.4,�k��,5.2,84.7,0,0,0,20.5,0,0,1006.1,1020.5
2024-02-26T03:56:00+09:00,3.5,�k��,8.4,�k��,5.1,84.9,0,0,0,20.5,0,0,1006.1,1020.5
2024-02-26T03:57:00+09:00,3.6,�k��,8.4,�k��,5,85.3,0,0,0,20.5,0,0,1006.1,1020.5
2024-02-26T03:58:00+09:00,3.5,�k�k��,8.4,�k��,5,85.5,0,0,0,20.5,0,0,1006.1,1020.5
2024-02-26T03:59:00+09:00,3.6,�k�k��,8.4,�k��,5,85.5,0,0,0,20.5,0,0,1006.2,1020.6
2024-02-26T04:00:00+09:00,3.3,�k�k��,6.6,�k��,4.9,85.8,0,0,0,20.5,0,0,1006.2,1020.6
2024-02-26T04:01:00+09:00,3,�k�k��,5.6,�k��,4.9,86.2,0,0,0,20.5,0,0,1006.2,1020.6
2024-02-26T04:02:00+09:00,2.8,�k�k��,5.6,�k��,4.9,86.6,0,0,0,20.5,0,0,1006.2,1020.6
2024-02-26T04:03:00+09:00,2.6,�k�k��,5.6,�k��,4.9,86.6,0,0,0,20.5,0,0,1006.3,1020.7
2024-02-26T04:04:00+09:00,2.5,�k�k��,5.4,�k,4.9,86.6,0,0,0,20.5,0,0,1006.3,1020.7
2024-02-26T04:05:00+09:00,2.4,�k�k��,5.4,�k,4.9,86.9,0,0,0,20.5,0,0,1006.4,1020.8
2024-02-26T04:06:00+09:00,2.4,�k,5.4,�k,4.9,86.7,0,0,0,20.5,0,0,1006.4,1020.8
2024-02-26T04:07:00+09:00,2.3,�k,7,�k�k��,4.9,86.8,0,0,0,20.5,0,0,1006.4,1020.8
2024-02-26T04:08:00+09:00,2.4,�k,7,�k�k��,4.9,86.9,0,0,0,20.5,0,0,1006.4,1020.8
2024-02-26T04:09:00+09:00,2.4,�k,7,�k�k��,4.9,86.9,0,0,0,20.5,0,0,1006.4,1020.8
2024-02-26T04:10:00+09:00,2.5,�k�k��,7,�k�k��,4.9,86.8,0,0,0,20.5,0,0,1006.4,1020.8
2024-02-26T04:11:00+09:00,2.7,�k�k��,7,�k�k��,4.9,86.6,0,0,0,20.5,0,0,1006.4,1020.8
2024-02-26T04:12:00+09:00,2.9,�k�k��,7,�k�k��,4.9,86,0,0,0,20.5,0,0,1006.3,1020.7
2024-02-26T04:13:00+09:00,3.1,�k�k��,7,�k�k��,4.9,86.2,0,0,0,20.5,0,0,1006.3,1020.7
2024-02-26T04:14:00+09:00,3.3,�k�k��,7,�k�k��,4.8,86.6,0,0,0,20.5,0,0,1006.3,1020.7
2024-02-26T04:15:00+09:00,3.6,�k�k��,7.2,�k��,4.8,86.7,0,0,0,20.5,0,0,1006.3,1020.7
2024-02-26T04:16:00+09:00,3.7,�k�k��,7.2,�k��,4.9,85.9,0,0,0,20.5,0,0,1006.4,1020.8
2024-02-26T04:17:00+09:00,3.9,�k��,7.2,�k��,5,85.2,0,0,0,20.5,0,0,1006.4,1020.8
2024-02-26T04:18:00+09:00,3.9,�k��,7.2,�k��,5,85.2,0,0,0,20.5,0,0,1006.4,1020.8
2024-02-26T04:19:00+09:00,4.1,�k��,8.1,�k�k��,4.9,85.4,0,0,0,20.5,0,0,1006.4,1020.8
2024-02-26T04:20:00+09:00,4.1,�k��,8.1,�k�k��,5,84.9,0,0,0,20.5,0,0,1006.4,1020.8
2024-02-26T04:21:00+09:00,3.9,�k�k��,8.1,�k�k��,4.9,85.1,0,0,0,20.5,0,0,1006.4,1020.8
2024-02-26T04:22:00+09:00,3.8,�k�k��,8.1,�k�k��,4.9,85.4,0,0,0,20.5,0,0,1006.5,1020.9
2024-02-26T04:23:00+09:00,3.7,�k�k��,8.1,�k�k��,4.8,85.4,0,0,0,20.5,0,0,1006.5,1020.9
2024-02-26T04:24:00+09:00,3.5,�k�k��,8.1,�k�k��,4.8,85.1,0,0,0,20.5,0,0,1006.5,1020.9
2024-02-26T04:25:00+09:00,3.4,�k�k��,8.1,�k�k��,4.8,85.3,0,0,0,20.5,0,0,1006.5,1020.9
2024-02-26T04:26:00+09:00,3.4,�k�k��,8.1,�k�k��,4.8,86.2,0,0,0,20.5,0,0,1006.6,1021
2024-02-26T04:27:00+09:00,3.5,�k,8.1,�k�k��,4.8,86.2,0,0,0,20.5,0,0,1006.5,1020.9
2024-02-26T04:28:00+09:00,3.6,�k,8.1,�k�k��,4.9,86.5,0,0,0,20.5,0,0,1006.6,1021
2024-02-26T04:29:00+09:00,3.3,�k,7.4,�k�k��,4.8,86.2,0,0,0,20.5,0,0,1006.6,1021
2024-02-26T04:30:00+09:00,3.3,�k,7.4,�k�k��,4.7,86.1,0,0,0,20.5,0,0,1006.5,1020.9
2024-02-26T04:31:00+09:00,3.3,�k,7.4,�k�k��,4.8,86.4,0,0,0,20.5,0,0,1006.6,1021
2024-02-26T04:32:00+09:00,3.2,�k,7.4,�k�k��,4.8,86.4,0,0,0,20.5,0,0,1006.6,1021
2024-02-26T04:33:00+09:00,3.2,�k,7.4,�k�k��,4.8,86.5,0,0,0,20.5,0,0,1006.7,1021.1
2024-02-26T04:34:00+09:00,3.1,�k,7.4,�k�k��,4.7,86.7,0,0,0,20.5,0,0,1006.7,1021.1
2024-02-26T04:35:00+09:00,2.9,�k,7.4,�k�k��,4.8,87.1,0,0,0,20.5,0,0,1006.7,1021.1
2024-02-26T04:36:00+09:00,2.7,�k,7.4,�k�k��,4.6,87.1,0,0,0,20.5,0,0,1006.6,1021
2024-02-26T04:37:00+09:00,2.4,�k,6.5,�k�k��,4.5,87.8,0,0,0,20.5,0,0,1006.7,1021.1
2024-02-26T04:38:00+09:00,2.2,�k,6,�k,4.5,88.2,0,0,0,20.5,0,0,1006.7,1021.1
2024-02-26T04:39:00+09:00,2.3,�k,6,�k,4.5,88.4,0,0,0,20.5,0,0,1006.7,1021.1
2024-02-26T04:40:00+09:00,2.2,�k,4.7,�k,4.6,89.2,0,0,0,20.5,0,0,1006.7,1021.1
2024-02-26T04:41:00+09:00,2.2,�k,4.7,�k,4.5,88.7,0,0,0,20.5,0,0,1006.7,1021.1
2024-02-26T04:42:00+09:00,2.2,�k,4.7,�k,4.5,89,0,0,0,20.5,0,0,1006.7,1021.1
2024-02-26T04:43:00+09:00,2.1,�k,4.7,�k,4.5,89.4,0,0,0,20.5,0,0,1006.7,1021.1
2024-02-26T04:44:00+09:00,2.1,�k,4.7,�k,4.5,89.4,0,0,0,20.5,0,0,1006.8,1021.2
2024-02-26T04:45:00+09:00,2.2,�k,5.2,�k,4.5,89.2,0,0,0,20.5,0,0,1006.8,1021.2
2024-02-26T04:46:00+09:00,2.1,�k,5.2,�k,4.6,89.3,0,0,0,20.5,0,0,1006.8,1021.2
2024-02-26T04:47:00+09:00,2.3,�k,5.2,�k,4.6,89.1,0,0,0,20.5,0,0,1006.7,1021.1
2024-02-26T04:48:00+09:00,2.5,�k,6,�k,4.6,89.3,0,0,0,20.5,0,0,1006.7,1021.1
2024-02-26T04:49:00+09:00,2.5,�k,6,�k,4.7,89.1,0,0,0,20.5,0,0,1006.8,1021.2
2024-02-26T04:50:00+09:00,2.6,�k,6.5,�k,4.7,88.9,0,0,0,20.5,0,0,1006.8,1021.2
2024-02-26T04:51:00+09:00,2.6,�k,6.5,�k,4.8,88.7,0,0,0,20.5,0,0,1006.7,1021.1
2024-02-26T04:52:00+09:00,2.6,�k,6.5,�k,4.7,88.5,0,0,0,20.5,0,0,1006.7,1021.1
2024-02-26T04:53:00+09:00,2.7,�k,6.5,�k,4.7,88.4,0,0,0,20.5,0,0,1006.6,1021